User: anonymous   Login
Location: Tyler Bend Campground
(35.9875°N, 92.7606°W)
Time: 23:32:09
(UTC-05:00)
Language:

CZ-2C R/B - Orbit

View from above orbital plane
View from above orbital plane
View from above satellite
View from above satellite

Ground track
Ground track

The orbit data is extracted from the following two-line orbital elements,

1 36089U 09061B   16237.52028255  .00000076  00000-0  30414-4 0  9999
2 36089  98.0516 246.5709 0080898 238.9121 283.6239 14.49591764358738
Epoch (UTC): 24 August 2016 12:29:12
Eccentricity: 0.0080898
inclination: 98.0516°
perigee height: 669 km
apogee height: 784 km
right ascension of ascending node: 246.5709°
argument of perigee: 238.9121°
revolutions per day: 14.49591764
mean anomaly at epoch: 283.6239°
orbit number at epoch: 35873

The dashed part of the orbit path shows where the satellite is in the earth's shadow,  

DLR